GW1437 Weather Reports


time (UTC)temp
F
wind
direction
speed
knots
gust
knots
rain 1hr
in
rain 24hr
in
rain mn
in
humidity
%
barometer
mb
20260507211339 61 240 1.7 1.7 0.00 0.00 0.00 39 1010.9
20260507210836 63 232 1.7 4.3 0.00 0.00 0.00 39 1010.7
20260507210333 63 203 0.9 1.7 0.00 0.00 0.00 38 1010.5
20260507205829 62 187 1.7 1.7 0.00 0.00 0.00 40 1010.5
20260507205327 61 214 0.0 0.0 0.00 0.00 0.00 41 1010.7
20260507204822 61 212 1.7 2.6 0.00 0.00 0.00 40 1010.6
20260507204320 61 45 2.6 4.3 0.00 0.00 0.00 40 1010.4
20260507203818 62 343 3.5 5.2 0.00 0.00 0.00 40 1010.5
20260507203315 62 209 0.9 0.9 0.00 0.00 0.00 39 1010.5
20260507202811 61 202 0.0 0.9 0.00 0.00 0.00 41 1010.7
20260507202308 62 239 1.7 1.7 0.00 0.00 0.00 43 1010.5
20260507201803 62 208 2.6 2.6 0.00 0.00 0.00 40 1010.6
20260507201259 63 193 0.0 0.0 0.00 0.00 0.00 40 1010.4
20260507200756 62 152 1.7 2.6 0.00 0.00 0.00 42 1010.6
20260507200252 60 214 1.7 1.7 0.00 0.00 0.00 42 1010.6
20260507195748 61 347 2.6 2.6 0.00 0.00 0.00 42 1010.6
20260507195245 60 261 3.5 4.3 0.00 0.00 0.00 41 1010.7
20260507194743 61 314 2.6 4.3 0.00 0.00 0.00 41 1010.9
20260507194238 62 319 3.5 4.3 0.00 0.00 0.00 41 1010.7
20260507193735 64 219 0.9 1.7 0.00 0.00 0.00 41 1010.6
20260507193232 64 187 0.0 0.9 0.00 0.00 0.00 44 1011.0
20260507192728 62 204 0.0 0.0 0.00 0.00 0.00 42 1010.8
20260507192225 61 207 0.0 0.0 0.00 0.00 0.00 43 1010.9
20260507191721 60 279 2.6 4.3 0.00 0.00 0.00 43 1010.8
20260507191218 60 193 1.7 1.7 0.00 0.00 0.00 44 1010.8
20260507190715 60 186 0.9 1.7 0.00 0.00 0.00 44 1011.1
20260507190214 60 274 1.7 1.7 0.00 0.00 0.00 43 1011.2
20260507185712 60 194 0.9 1.7 0.00 0.00 0.00 45 1010.9
20260507185208 60 237 1.7 1.7 0.00 0.00 0.00 44 1011.2
20260507184706 60 228 0.9 1.7 0.00 0.00 0.00 44 1011.1
20260507184203 60 225 1.7 2.6 0.00 0.00 0.00 44 1011.2
20260507183654 60 203 0.9 1.7 0.00 0.00 0.00 46 1011.1
20260507183151 61 193 1.7 2.6 0.00 0.00 0.00 43 1011.3
20260507182648 61 204 0.0 0.0 0.00 0.00 0.00 43 1011.3
20260507182143 61 222 2.6 4.3 0.00 0.00 0.00 44 1011.3
20260507181640 60 194 0.9 0.9 0.00 0.00 0.00 44 1011.1
20260507181136 62 197 0.9 1.7 0.00 0.00 0.00 43 1011.3
20260507180633 62 243 3.5 5.2 0.00 0.00 0.00 44 1011.2
20260507180130 62 209 0.9 0.9 0.00 0.00 0.00 45 1011.6
20260507175626 60 228 1.7 1.7 0.00 0.00 0.00 44 1011.6
20260507175123 62 228 2.6 2.6 0.00 0.00 0.00 42 1011.6
20260507174620 61 212 0.9 1.7 0.00 0.00 0.00 43 1011.5
20260507174118 61 293 4.3 6.1 0.00 0.00 0.00 43 1011.5
20260507173615 63 264 0.9 2.6 0.00 0.00 0.00 45 1011.7
20260507173112 62 230 1.7 1.7 0.00 0.00 0.00 41 1011.8
20260507172608 61 195 1.7 1.7 0.00 0.00 0.00 43 1011.7
20260507172106 61 187 0.0 0.0 0.00 0.00 0.00 46 1012.1
20260507171600 62 248 3.5 4.3 0.00 0.00 0.00 42 1012.1
20260507171058 62 203 0.9 0.9 0.00 0.00 0.00 45 1012.3
20260507170555 60 184 0.9 1.7 0.00 0.00 0.00 46 1012.1
20260507170051 59 279 4.3 5.2 0.00 0.00 0.00 44 1012.4
20260507165546 61 176 2.6 2.6 0.00 0.00 0.00 40 1012.4
20260507165038 62 190 1.7 2.6 0.00 0.00 0.00 45 1012.4
20260507164534 61 194 0.0 0.9 0.00 0.00 0.00 44 1012.2
20260507164032 61 178 0.0 0.9 0.00 0.00 0.00 49 1012.4
20260507163528 62 204 0.0 0.0 0.00 0.00 0.00 45 1012.3
20260507163026 60 271 0.9 1.7 0.00 0.00 0.00 45 1012.6
20260507162521 61 253 2.6 4.3 0.00 0.00 0.00 44 1012.4
20260507162018 61 155 1.7 2.6 0.00 0.00 0.00 45 1012.7
20260507161514 61 247 2.6 4.3 0.00 0.00 0.00 48 1012.7
20260507161012 61 254 1.7 4.3 0.00 0.00 0.00 46 1012.7
20260507160507 59 217 0.9 1.7 0.00 0.00 0.00 45 1012.8
20260507160004 59 200 1.7 1.7 0.00 0.00 0.00 47 1012.9
20260507155459 60 250 0.9 1.7 0.00 0.00 0.00 46 1013.0
20260507154956 58 164 0.0 0.0 0.00 0.00 0.00 51 1012.8
20260507154453 58 249 3.5 4.3 0.00 0.00 0.00 50 1012.9
20260507153950 57 256 1.7 2.6 0.00 0.00 0.00 52 1012.9
20260507153447 58 192 0.9 0.9 0.00 0.00 0.00 50 1013.1
20260507152943 58 281 1.7 1.7 0.00 0.00 0.00 48 1013.0
20260507152439 58 353 1.7 4.3 0.00 0.00 0.00 49 1013.0
20260507151935 58 198 1.7 2.6 0.00 0.00 0.00 51 1013.1
20260507151432 56 253 1.7 1.7 0.00 0.00 0.00 49 1013.1
20260507150929 55 206 0.9 1.7 0.00 0.00 0.00 51 1013.1
20260507150426 57 325 1.7 4.3 0.00 0.00 0.00 48 1013.3
20260507145922 56 255 0.9 0.9 0.00 0.00 0.00 51 1013.3
20260507145418 57 192 0.0 0.9 0.00 0.00 0.00 51 1013.7
20260507144915 59 194 0.0 0.9 0.00 0.00 0.00 55 1013.6
20260507144412 57 243 0.9 2.6 0.00 0.00 0.00 55 1013.6
20260507143909 57 200 0.0 0.0 0.00 0.00 0.00 51 1013.7
20260507143406 57 213 0.9 1.7 0.00 0.00 0.00 51 1013.6
20260507142903 58 255 0.9 1.7 0.00 0.00 0.00 51 1013.7
20260507142359 57 190 0.9 1.7 0.00 0.00 0.00 52 1013.9
20260507141856 56 263 2.6 2.6 0.00 0.00 0.00 55 1014.0
20260507141352 57 233 1.7 1.7 0.00 0.00 0.00 58 1014.0
20260507140849 57 200 0.9 1.7 0.00 0.00 0.00 53 1014.1
20260507140346 57 202 0.0 0.0 0.00 0.00 0.00 57 1014.1
20260507135844 57 200 1.7 2.6 0.00 0.00 0.00 56 1014.1
20260507135340 57 198 0.0 0.9 0.00 0.00 0.00 55 1014.2
20260507134838 56 194 0.0 0.0 0.00 0.00 0.00 62 1014.3
20260507134333 56 187 0.0 0.0 0.00 0.00 0.00 58 1014.1
20260507133830 56 199 0.0 0.0 0.00 0.00 0.00 57 1014.3
20260507133325 55 199 0.0 0.0 0.00 0.00 0.00 58 1014.3
20260507132824 55 196 0.0 0.9 0.00 0.00 0.00 65 1014.4
20260507132320 54 192 0.0 0.9 0.00 0.00 0.00 67 1014.4
20260507131817 54 203 0.0 0.9 0.00 0.00 0.00 64 1014.1
20260507131314 53 194 0.0 0.9 0.00 0.00 0.00 67 1014.3
20260507130810 53 197 0.0 0.0 0.00 0.00 0.00 67 1014.4
20260507130308 51 243 0.9 1.7 0.00 0.00 0.00 72 1014.4
20260507125807 51 199 0.9 1.7 0.00 0.00 0.00 74 1014.3
20260507125306 50 201 0.0 0.0 0.00 0.00 0.00 81 1014.3
20260507124801 48 195 0.0 0.0 0.00 0.00 0.00 83 1014.3
20260507124257 48 195 0.0 0.0 0.00 0.00 0.00 84 1014.4
20260507123756 48 192 0.0 0.9 0.00 0.00 0.00 83 1014.6
20260507123253 48 175 0.0 0.9 0.00 0.00 0.00 83 1014.6
20260507122748 46 200 0.0 0.0 0.00 0.00 0.00 86 1014.6
20260507122244 45 201 0.0 0.0 0.00 0.00 0.00 86 1014.6
20260507121740 44 194 0.0 0.0 0.00 0.00 0.00 88 1014.8
20260507121236 44 209 0.0 0.9 0.00 0.00 0.00 87 1014.6
20260507120732 45 166 0.9 0.9 0.00 0.00 0.00 86 1014.3
20260507120230 45 187 0.0 0.9 0.00 0.00 0.00 87 1014.5
20260507115726 44 196 0.0 0.0 0.00 0.00 0.00 87 1014.6
20260507115222 44 191 0.0 0.0 0.00 0.00 0.00 88 1014.3
20260507114717 42 196 0.0 0.0 0.00 0.00 0.00 91 1014.4
20260507114215 42 188 0.0 0.0 0.00 0.00 0.00 92 1014.4
20260507113712 41 190 0.0 0.0 0.00 0.00 0.00 95 1014.6
20260507113209 41 188 0.0 0.0 0.00 0.00 0.00 98 1014.4
20260507112707 40 196 0.0 0.0 0.00 0.00 0.00 99 1014.2
20260507112203 39 194 0.0 0.0 0.00 0.00 0.00 99 1014.3
20260507111701 38 194 0.0 0.0 0.00 0.00 0.00 99 1014.2
20260507111157 37 197 0.0 0.0 0.00 0.00 0.00 99 1014.3
20260507110653 37 193 0.0 0.0 0.00 0.00 0.00 99 1014.2
20260507110150 36 195 0.0 0.0 0.00 0.00 0.00 99 1014.4
20260507105647 35 196 0.0 0.0 0.00 0.00 0.00 99 1014.1
20260507105143 35 195 0.0 0.0 0.00 0.00 0.00 99 1014.1
20260507104641 35 197 0.0 0.0 0.00 0.00 0.00 99 1014.1
20260507104137 35 197 0.0 0.0 0.00 0.00 0.00 99 1013.9
20260507103633 35 196 0.0 0.0 0.00 0.00 0.00 99 1014.0
20260507103130 35 197 0.0 0.0 0.00 0.00 0.00 99 1013.9
20260507102626 35 193 0.0 0.9 0.00 0.00 0.00 99 1013.7
20260507102123 35 192 0.0 0.0 0.00 0.00 0.00 99 1013.8
20260507101618 35 197 0.0 0.0 0.00 0.00 0.00 99 1013.8
20260507101115 35 196 0.0 0.0 0.00 0.00 0.00 99 1014.0
20260507100612 35 197 0.0 0.0 0.00 0.00 0.00 99 1013.9
20260507100110 35 197 0.0 0.0 0.00 0.00 0.00 99 1013.8
20260507095608 35 197 0.0 0.0 0.00 0.00 0.00 99 1013.7
20260507095104 35 198 0.0 0.0 0.00 0.00 0.00 99 1013.7
20260507094600 35 196 0.0 0.0 0.00 0.00 0.00 99 1013.8
20260507094057 35 196 0.0 0.0 0.00 0.00 0.00 99 1013.8
20260507093555 35 196 0.0 0.0 0.00 0.00 0.00 99 1013.9
20260507093053 36 197 0.0 0.0 0.00 0.00 0.00 99 1013.8
20260507092549 36 195 0.0 0.0 0.00 0.00 0.00 99 1013.9
20260507092046 36 198 0.0 0.0 0.00 0.00 0.00 99 1013.9
20260507091543 36 198 0.0 0.0 0.00 0.00 0.00 99 1014.0
20260507091039 36 198 0.0 0.0 0.00 0.00 0.00 99 1013.8
20260507090535 37 195 0.0 0.0 0.00 0.00 0.00 99 1013.9
20260507090032 37 198 0.0 0.0 0.00 0.00 0.00 99 1014.0
20260507085529 37 198 0.0 0.0 0.00 0.00 0.00 99 1014.0
20260507085026 37 199 0.0 0.0 0.00 0.00 0.00 99 1013.9
20260507084522 37 199 0.0 0.0 0.00 0.00 0.00 98 1013.8
20260507084019 37 199 0.0 0.0 0.00 0.00 0.00 98 1013.7
20260507083516 37 189 0.0 0.9 0.00 0.00 0.00 98 1013.8
20260507083013 38 200 0.0 0.0 0.00 0.00 0.00 98 1014.0
20260507082509 38 195 0.0 0.0 0.00 0.00 0.00 98 1014.0
20260507082005 38 195 0.0 0.0 0.00 0.00 0.00 98 1013.7
20260507081501 38 198 0.0 0.0 0.00 0.00 0.00 97 1013.8
20260507080959 38 197 0.0 0.0 0.00 0.00 0.00 97 1013.8
20260507080454 39 199 0.0 0.0 0.00 0.00 0.00 97 1013.8
20260507075949 39 188 0.9 0.9 0.00 0.00 0.00 96 1013.9
20260507075446 38 199 0.0 0.0 0.00 0.00 0.00 95 1013.9
20260507074943 39 199 0.0 0.0 0.00 0.00 0.00 95 1013.8
20260507074440 39 199 0.0 0.0 0.00 0.00 0.00 95 1013.7
20260507073938 40 197 0.0 0.0 0.00 0.00 0.00 94 1013.8
20260507073434 39 199 0.0 0.0 0.00 0.00 0.00 93 1013.8
20260507072931 40 197 0.0 0.0 0.00 0.00 0.00 93 1013.9
20260507072428 41 194 0.0 0.0 0.00 0.00 0.00 92 1013.9
20260507071926 41 198 0.0 0.0 0.00 0.00 0.00 90 1013.8
20260507071422 41 198 0.0 0.0 0.00 0.00 0.00 89 1014.0
20260507070919 41 198 0.0 0.0 0.00 0.00 0.00 88 1013.9
20260507070417 42 198 0.0 0.0 0.00 0.00 0.00 88 1014.1
20260507065913 42 198 0.0 0.0 0.00 0.00 0.00 87 1013.8
20260507065410 42 197 0.0 0.0 0.00 0.00 0.00 85 1014.1
20260507064907 42 193 0.0 0.9 0.00 0.00 0.00 86 1013.8
20260507064405 43 193 0.0 0.0 0.00 0.00 0.00 86 1014.0
20260507063903 44 197 0.0 0.0 0.00 0.00 0.00 85 1014.0
20260507063400 44 198 0.0 0.0 0.00 0.00 0.00 84 1014.1
20260507062857 45 197 0.0 0.0 0.00 0.00 0.00 83 1013.9
20260507062353 45 196 0.0 0.0 0.00 0.00 0.00 82 1013.9
20260507061851 46 200 0.0 0.0 0.00 0.00 0.00 82 1014.2
20260507061349 46 198 0.0 0.0 0.00 0.00 0.00 80 1013.9
20260507060847 46 197 0.0 0.0 0.00 0.00 0.00 81 1014.0
20260507060343 47 195 0.0 0.0 0.00 0.00 0.00 80 1014.0
20260507055840 47 195 0.0 0.0 0.00 0.00 0.00 76 1014.1
20260507055335 47 197 0.0 0.0 0.00 0.00 0.00 73 1014.3
20260507054832 48 185 0.0 0.0 0.00 0.00 0.00 72 1014.5
20260507054328 48 200 0.0 0.0 0.00 0.00 0.00 72 1014.5
20260507053826 48 207 0.0 0.0 0.00 0.00 0.00 71 1014.4
20260507053323 48 196 0.0 0.0 0.00 0.00 0.00 73 1014.6
20260507052822 48 215 0.9 0.9 0.00 0.00 0.00 73 1014.6
20260507052318 48 203 0.9 0.9 0.00 0.00 0.00 75 1014.8
20260507051816 47 211 0.0 0.9 0.00 0.00 0.00 79 1014.6
20260507051313 47 199 0.0 0.0 0.00 0.00 0.00 82 1014.6
20260507050810 47 203 0.0 0.0 0.00 0.00 0.00 81 1014.6
20260507050306 47 267 0.9 1.7 0.00 0.00 0.00 79 1014.7
20260507045803 47 199 0.0 0.0 0.00 0.00 0.00 83 1014.7
20260507045300 47 201 0.0 0.0 0.00 0.00 0.00 84 1014.5
20260507044757 47 208 0.0 0.0 0.00 0.00 0.00 84 1014.4
20260507044253 47 227 0.9 0.9 0.00 0.00 0.00 84 1014.5
20260507043749 47 194 0.0 0.0 0.00 0.00 0.00 82 1014.5
20260507043246 47 198 0.0 0.0 0.00 0.00 0.00 82 1014.5
20260507042743 47 198 0.0 0.0 0.00 0.00 0.00 82 1014.4
20260507042238 48 197 0.0 0.0 0.00 0.00 0.00 82 1014.4
20260507041736 48 193 0.0 0.0 0.00 0.00 0.00 82 1014.4
20260507041232 48 198 0.0 0.0 0.00 0.00 0.00 81 1014.6
20260507040729 48 198 0.0 0.0 0.00 0.00 0.00 81 1014.4
20260507040225 48 193 0.0 0.0 0.00 0.00 0.00 80 1014.2
20260507035721 48 196 0.0 0.0 0.00 0.85 0.85 79 1014.4
20260507035217 48 193 0.0 0.9 0.00 0.85 0.85 77 1014.3
20260507034714 48 196 0.0 0.0 0.00 0.85 0.85 77 1014.4
20260507034211 48 193 0.0 0.0 0.00 0.85 0.85 78 1014.4
20260507033710 48 200 0.0 0.0 0.00 0.85 0.85 78 1014.4
20260507033207 49 199 0.0 0.0 0.00 0.85 0.85 78 1014.3
20260507032704 49 199 0.0 0.0 0.00 0.85 0.85 77 1014.2
20260507032200 49 197 0.0 0.0 0.00 0.85 0.85 76 1014.0
20260507031657 49 200 0.0 0.0 0.00 0.85 0.85 76 1014.0
20260507031153 49 191 0.0 0.0 0.00 0.85 0.85 74 1014.0
20260507030650 49 199 0.0 0.0 0.00 0.85 0.85 73 1014.3
20260507030148 49 197 0.0 0.0 0.00 0.85 0.85 73 1014.0
20260507025645 50 195 0.0 0.0 0.00 0.85 0.85 72 1014.0
20260507025142 50 200 0.0 0.0 0.00 0.85 0.85 71 1014.0
20260507024640 50 201 0.0 0.0 0.00 0.85 0.85 72 1013.9
20260507024137 50 201 0.0 0.0 0.00 0.85 0.85 71 1014.0
20260507023632 50 196 0.0 0.0 0.00 0.85 0.85 69 1013.7
20260507023130 50 197 0.0 0.0 0.00 0.85 0.85 70 1013.8
20260507022627 50 202 0.0 0.9 0.00 0.85 0.85 68 1013.8
20260507022122 51 197 0.0 0.0 0.00 0.85 0.85 68 1013.8
20260507021619 50 202 0.9 1.7 0.00 0.85 0.85 69 1013.8
20260507021115 50 216 0.0 0.0 0.00 0.85 0.85 72 1013.8
20260507020613 51 201 0.0 0.0 0.00 0.85 0.85 75 1013.3
20260507020109 51 198 0.0 0.0 0.00 0.85 0.85 71 1013.6
20260507015608 51 323 0.0 0.9 0.00 0.85 0.85 69 1013.5
20260507015105 51 243 2.6 4.3 0.00 0.85 0.85 68 1013.3
20260507014601 51 16 1.7 1.7 0.00 0.85 0.85 69 1013.2
20260507014057 51 218 0.9 0.9 0.00 0.85 0.85 69 1013.2
20260507013554 51 331 1.7 1.7 0.00 0.85 0.85 72 1013.2
20260507013051 51 224 0.9 0.9 0.00 0.85 0.85 71 1013.2
20260507012548 51 205 0.0 0.0 0.00 0.85 0.85 73 1013.2
20260507012044 51 218 0.9 0.9 0.00 0.85 0.85 75 1013.3
20260507011542 51 197 0.0 0.9 0.00 0.85 0.85 76 1013.3
20260507011038 51 247 0.9 0.9 0.00 0.85 0.85 75 1013.5
20260507010532 52 347 0.0 0.9 0.00 0.85 0.85 75 1013.6
20260507010029 52 128 0.0 0.9 0.00 0.85 0.85 72 1013.4
20260507005527 52 222 0.0 0.0 0.00 0.85 0.85 75 1013.6
20260507005023 53 203 0.0 0.0 0.00 0.85 0.85 72 1013.7
20260507004520 53 215 0.9 0.9 0.00 0.85 0.85 68 1013.8
20260507004018 53 213 0.0 0.0 0.00 0.85 0.85 68 1013.6
20260507003513 53 356 2.6 2.6 0.00 0.85 0.85 68 1013.6
20260507003008 53 220 0.0 0.9 0.00 0.85 0.85 67 1013.9
20260507002505 53 223 0.9 1.7 0.00 0.85 0.85 67 1013.6
20260507002001 53 198 1.7 2.6 0.00 0.85 0.85 68 1013.5
20260507001457 53 230 0.0 0.9 0.00 0.85 0.85 69 1013.5
20260507000955 53 243 2.6 2.6 0.00 0.85 0.85 69 1013.4
20260507000451 54 215 1.7 1.7 0.00 0.85 0.85 70 1013.5
20260506235946 54 254 0.9 0.9 0.00 0.85 0.85 70 1013.6
20260506235444 54 192 0.0 0.9 0.00 0.85 0.85 72 1013.3
20260506234939 54 268 0.0 0.9 0.00 0.85 0.85 74 1013.2
20260506234437 54 224 0.9 1.7 0.00 0.85 0.85 74 1013.0
20260506233935 54 202 0.0 0.0 0.00 0.85 0.85 73 1013.1
20260506233431 54 218 0.9 1.7 0.00 0.85 0.85 73 1013.0
20260506232928 55 210 0.0 0.0 0.00 0.85 0.85 74 1012.8
20260506232424 55 228 0.9 0.9 0.00 0.85 0.85 73 1012.9
20260506231920 55 284 0.9 0.9 0.00 0.85 0.85 74 1013.0
20260506231418 55 217 0.9 0.9 0.00 0.85 0.85 75 1012.7
20260506230915 55 219 0.9 0.9 0.00 0.85 0.85 75 1012.5
20260506230411 55 206 0.0 0.0 0.00 0.85 0.85 75 1012.6
20260506225908 55 204 0.0 0.0 0.00 0.85 0.85 75 1012.6
20260506225405 55 213 0.9 1.7 0.00 0.85 0.85 74 1012.4
20260506224902 55 210 0.9 1.7 0.00 0.85 0.85 74 1012.4
20260506224359 55 181 0.9 0.9 0.00 0.85 0.85 75 1012.5
20260506223855 55 309 0.9 1.7 0.00 0.85 0.85 75 1012.4
20260506223350 55 216 0.0 0.0 0.00 0.85 0.85 73 1012.6
20260506222848 55 224 0.9 0.9 0.00 0.85 0.85 74 1012.4
20260506222344 55 205 0.0 0.0 0.00 0.85 0.85 75 1012.4
20260506221842 55 205 0.9 0.9 0.00 0.85 0.85 74 1012.5
20260506221339 55 243 1.7 1.7 0.00 0.85 0.85 74 1012.4
20260506220836 55 202 0.0 0.9 0.00 0.85 0.85 74 1012.2
20260506220331 55 277 1.7 1.7 0.00 0.85 0.85 74 1012.0
20260506215829 55 97 0.9 0.9 0.00 0.85 0.85 74 1012.0
20260506215324 55 210 0.9 0.9 0.00 0.85 0.85 75 1012.2
20260506214820 55 263 1.7 1.7 0.00 0.85 0.85 75 1012.2
20260506214317 55 194 0.0 0.0 0.00 0.85 0.85 76 1012.2
20260506213816 55 201 0.0 0.0 0.00 0.85 0.85 77 1012.0
20260506213313 55 206 0.9 0.9 0.00 0.85 0.85 78 1012.0
20260506212810 55 202 0.0 0.0 0.00 0.85 0.85 78 1012.1
20260506212307 55 201 0.0 0.9 0.00 0.85 0.85 77 1012.0